EST,Max TemperatureF,Mean TemperatureF,Min TemperatureF,Max Dew PointF,MeanDew PointF,Min DewpointF,Max Humidity, Mean Humidity, Min Humidity, Max Sea Level PressureIn, Mean Sea Level PressureIn, Min Sea Level PressureIn, Max VisibilityMiles, Mean VisibilityMiles, Min VisibilityMiles, Max Wind SpeedMPH, Mean Wind SpeedMPH, Max Gust SpeedMPH,PrecipitationIn, CloudCover, Events, WindDirDegrees
2013-12-1,44,39,34,29,27,24,67,58,49,30.23,30.09,29.99,10,10,10,10,8,,0.00,7,,199
2013-12-2,48,42,37,35,32,28,83,67,56,29.98,29.90,29.84,10,10,8,7,5,,0.00,7,Rain,248
2013-12-3,54,46,37,40,37,34,93,75,53,29.93,29.90,29.86,10,7,2,6,2,,0.01,4,Rain,83
2013-12-4,57,50,42,45,41,36,80,69,62,30.01,29.94,29.90,10,9,5,9,5,,0.00,3,,142
2013-12-5,63,51,39,58,50,37,94,84,65,30.05,29.92,29.87,10,5,2,20,10,29,1.00,7,Rain,210
2013-12-6,39,34,28,37,31,26,93,89,81,30.29,30.14,30.03,10,5,0,14,8,22,0.59,8,Fog-Rain-Snow,341
2013-12-7,30,26,19,27,20,12,93,75,58,30.61,30.44,30.24,10,10,2,10,7,20,0.00,6,Snow,331
2013-12-8,30,24,19,29,20,11,93,81,68,30.58,30.32,30.04,10,5,0,13,6,17,0.09,7,Fog-Rain-Snow,82
2013-12-9,37,34,30,37,32,22,100,87,69,30.16,30.02,29.94,10,4,0,17,9,24,0.04,8,Fog-Rain,200
2013-12-10,30,26,23,22,18,8,88,71,43,30.29,30.09,30.00,10,6,0,20,10,25,0.05,5,Fog-Snow,267
2013-12-11,30,24,19,21,14,10,80,64,51,30.38,30.32,30.24,10,9,3,16,10,24,0.00,4,Snow,255
2013-12-12,23,18,12,12,5,2,71,57,42,30.50,30.38,30.29,10,10,9,16,10,26,0.00,4,,260
2013-12-13,34,28,21,17,11,3,59,50,45,30.29,30.26,30.23,10,10,10,15,9,,0.00,2,,233
2013-12-14,39,34,30,37,30,17,93,85,54,30.25,29.90,29.64,10,4,0,14,6,21,0.55,8,Fog-Rain-Snow,127
2013-12-15,39,30,21,37,24,8,93,78,55,30.06,29.82,29.63,10,8,2,26,13,36,0.02,8,Rain-Snow,264
2013-12-16,26,22,19,21,15,10,86,73,62,30.20,30.10,30.00,10,7,2,8,5,17,0.00,8,Snow,297
2013-12-17,35,30,24,31,25,21,93,82,66,30.06,29.98,29.91,10,5,1,14,7,23,0.07,8,Snow,228
2013-12-18,28,26,24,25,20,16,93,76,63,30.22,30.12,30.00,10,9,2,16,11,22,0.00,6,Snow,249
2013-12-19,51,39,27,33,25,17,72,52,42,30.14,30.08,30.02,10,10,10,16,10,24,0.00,0,,202
2013-12-20,55,50,46,49,39,24,86,64,36,30.02,29.95,29.90,10,10,5,16,11,26,0.02,7,Rain,193
2013-12-21,61,58,55,59,54,48,94,86,74,29.90,29.84,29.66,10,8,2,20,10,28,0.81,7,Rain,183
2013-12-22,68,62,55,58,53,46,90,75,65,29.95,29.81,29.57,10,10,2,26,15,47,0.20,7,Rain,214
2013-12-23,55,42,30,46,33,17,93,78,57,30.31,30.14,29.96,10,8,4,16,8,26,0.07,8,Rain,291
2013-12-24,30,22,14,23,15,5,86,69,46,30.55,30.32,30.19,10,6,0,18,9,29,0.02,7,Fog-Snow,285
2013-12-25,27,20,12,23,14,6,88,71,55,30.54,30.37,30.19,10,8,2,7,4,,0.00,5,Snow,164
2013-12-26,36,31,26,27,23,13,93,74,48,30.37,30.21,30.11,10,6,1,20,9,28,0.06,6,Snow,220
2013-12-27,41,34,27,25,20,14,66,56,48,30.39,30.34,30.29,10,10,10,12,8,,0.00,4,,207
2013-12-28,52,43,34,27,24,19,56,47,38,30.27,30.20,30.08,10,10,10,16,10,20,0.00,0,,197
2013-12-29,44,42,39,40,37,23,100,87,45,30.03,29.77,29.65,10,5,0,15,8,21,0.66,8,Fog-Rain,301
2013-12-30,41,32,23,37,21,14,87,76,64,30.22,30.08,29.82,10,8,1,16,9,26,0.01,8,Rain-Snow,320
2013-12-31,26,24,23,21,17,12,85,73,60,30.34,30.17,30.04,10,6,0,22,9,33,0.00,7,Snow,235